Weather History for KLCI - December, 2011

Change the Weather History Date:

Wednesday, December 28, 2011

  Actual Average (KCON) Record (KCON)
Temperature  
Mean Temperature 37 °F 23 °F  
Max Temperature 53 °F 33 °F 62 °F (1982)
Min Temperature 21 °F 13 °F -21 °F (1933)
Degree Days  
Heating Degree Days 28 42  
Month to date heating degree days 1058  
Since 1 July heating degree days 2618  
Cooling Degree Days 0 0  
Month to date cooling degree days 0  
Year to date cooling degree days 452  
Moisture  
Dew Point 29 °F    
Average Humidity 69    
Maximum Humidity 94    
Minimum Humidity 53    
Precipitation  
Precipitation 0.01 in 0.10 in 1.27 in (1946)
Month to date precipitation 2.92  
Year to date precipitation 40.33  
Snow  
Snow 0.00 in 0.50 in 14.00 in (1873)
Month to date snowfall 12.9  
Since 1 July snowfall 15.5  
Snow Depth -    
Sea Level Pressure  
Sea Level Pressure 29.30 in    
Wind  
Wind Speed 13 mph (WSW)    
Max Wind Speed 24 mph    
Max Gust Speed 39 mph    
Visibility 10 miles    
Events      
T = Trace of Precipitation, MM = Missing Value Source: NWS Daily Summary

Daily Weather History Graph

Daily Weather History Graph

Search for Another Location

Airport or City:

Trip Planner

Search our weather history database for the weather conditions in past years. The results will help you decide how hot, cold, wet, or windy it might be!

Date:

Astronomy

Dec. 28, 2011 Rise Set
Actual Time 7:18 AM EST 4:16 PM EST
Civil Twilight 6:45 AM EST 4:48 PM EST
Nautical Twilight 6:09 AM EST 5:25 PM EST
Astronomical Twilight 5:34 AM EST 5:59 PM EST
Moon 9:35 AM EST (12/28) 8:57 PM EST (12/28)
Length of Visible Light 10h 03m
Length of Day
8h 57m
Waxing Crescent, 18% of the Moon is Illuminated
Dec 28
Waxing Crescent
Jan 1
First Quarter
Jan 9
Full
Jan 16
Last Quarter
Jan 23
New

Hourly Weather History & Observations

Time (EST) Temp. Windchill Dew Point Humidity Pressure Visibility Wind Dir Wind Speed Gust Speed Precip Events Conditions
12:15 AM 51.8 °F - 46.4 °F 82% 29.24 in 9.0 mi SE 18.4 mph 31.1 mph 0.01 in   Overcast
12:35 AM 50.0 °F - 46.4 °F 87% 29.23 in 10.0 mi SE 13.8 mph 23.0 mph 0.10 in   Overcast
1:15 AM 53.6 °F - 48.2 °F 82% 29.21 in 10.0 mi SE 11.5 mph 28.8 mph N/A   Overcast
1:35 AM 53.6 °F - 50.0 °F 88% 29.21 in 7.0 mi South 8.1 mph 21.9 mph N/A   Mostly Cloudy
1:55 AM 53.6 °F - 51.8 °F 94% 29.20 in 10.0 mi South 18.4 mph 25.3 mph N/A   Mostly Cloudy
2:15 AM 53.6 °F - 50.0 °F 88% 29.21 in 9.0 mi WSW 9.2 mph 20.7 mph N/A   Overcast
2:35 AM 51.8 °F - 48.2 °F 88% 29.21 in 10.0 mi WSW 6.9 mph - N/A   Mostly Cloudy
2:55 AM 51.8 °F - 48.2 °F 88% 29.20 in 5.0 mi SW 6.9 mph - 0.01 in   Overcast
3:15 AM 50.0 °F - 48.2 °F 94% 29.20 in 10.0 mi WSW 6.9 mph - N/A   Overcast
3:35 AM 50.0 °F - 48.2 °F 94% 29.20 in 10.0 mi WSW 8.1 mph - N/A   Overcast
4:15 AM 48.2 °F - 44.6 °F 87% 29.19 in 10.0 mi SW 10.4 mph - N/A   Mostly Cloudy
4:35 AM 46.4 °F 42.4 °F 42.8 °F 87% 29.18 in 10.0 mi WSW 8.1 mph - N/A   Partly Cloudy
4:55 AM 46.4 °F 42.4 °F 42.8 °F 87% 29.19 in 10.0 mi WSW 8.1 mph - N/A   Mostly Cloudy
5:15 AM 46.4 °F 42.9 °F 42.8 °F 87% 29.20 in 10.0 mi WSW 6.9 mph - N/A   Overcast
5:35 AM 44.6 °F 41.4 °F 41.0 °F 87% 29.20 in 10.0 mi SW 5.8 mph - N/A   Overcast
5:55 AM 44.6 °F 41.4 °F 39.2 °F 81% 29.21 in 10.0 mi SW 5.8 mph - N/A   Overcast
6:15 AM 44.6 °F 40.7 °F 39.2 °F 81% 29.22 in 10.0 mi WSW 6.9 mph - N/A   Overcast
6:55 AM 44.6 °F 39.2 °F 35.6 °F 71% 29.23 in 10.0 mi SW 10.4 mph 16.1 mph N/A   Overcast
7:15 AM 42.8 °F 38.0 °F 35.6 °F 76% 29.23 in 10.0 mi SW 8.1 mph - N/A   Overcast
7:35 AM 42.8 °F 36.6 °F 35.6 °F 76% 29.23 in 10.0 mi SW 11.5 mph - N/A   Overcast
7:55 AM 41.0 °F 33.5 °F 33.8 °F 76% 29.23 in 10.0 mi SW 13.8 mph - N/A   Overcast
8:15 AM 41.0 °F 32.8 °F 32.0 °F 70% 29.23 in 10.0 mi WSW 16.1 mph - N/A   Overcast
8:35 AM 42.8 °F 35.8 °F 32.0 °F 66% 29.23 in 10.0 mi WSW 13.8 mph - N/A   Overcast
8:55 AM 42.8 °F 35.1 °F 32.0 °F 66% 29.23 in 10.0 mi WSW 16.1 mph 23.0 mph N/A   Mostly Cloudy
9:55 AM 42.8 °F 34.8 °F 32.0 °F 66% 29.24 in 10.0 mi WSW 17.3 mph 21.9 mph N/A   Mostly Cloudy
10:15 AM 42.8 °F 35.1 °F 30.2 °F 61% 29.24 in 10.0 mi WSW 16.1 mph 20.7 mph N/A   Overcast
10:35 AM 42.8 °F 35.1 °F 30.2 °F 61% 29.23 in 10.0 mi WSW 16.1 mph 23.0 mph N/A   Overcast
10:55 AM 42.8 °F 34.8 °F 28.4 °F 57% 29.22 in 10.0 mi WSW 17.3 mph 26.5 mph N/A   Overcast
11:15 AM 42.8 °F 36.2 °F 28.4 °F 57% 29.23 in 10.0 mi West 12.7 mph 21.9 mph N/A   Overcast
11:35 AM 42.8 °F 35.8 °F 28.4 °F 57% 29.23 in 10.0 mi West 13.8 mph 24.2 mph N/A   Overcast
11:55 AM 41.0 °F 33.5 °F 28.4 °F 61% 29.23 in 10.0 mi WSW 13.8 mph 19.6 mph N/A   Overcast
12:15 PM 41.0 °F 35.2 °F 28.4 °F 61% 29.23 in 10.0 mi West 9.2 mph 25.3 mph N/A   Overcast
1:15 PM 41.0 °F 31.9 °F 24.8 °F 53% 29.24 in 10.0 mi West 19.6 mph 33.4 mph N/A   Overcast
1:35 PM 41.0 °F 33.9 °F 24.8 °F 53% 29.25 in 10.0 mi WNW 12.7 mph 24.2 mph N/A   Overcast
1:55 PM 39.2 °F 32.0 °F 24.8 °F 56% 29.25 in 10.0 mi West 11.5 mph 25.3 mph N/A   Overcast
2:15 PM 39.2 °F 28.7 °F 24.8 °F 56% 29.26 in 10.0 mi WSW 23.0 mph 27.6 mph N/A   Overcast
2:35 PM 37.4 °F 28.5 °F 28.4 °F 70% 29.27 in 10.0 mi WSW 15.0 mph 27.6 mph N/A   Overcast
2:55 PM 37.4 °F 29.3 °F 26.6 °F 65% 29.29 in 10.0 mi WSW 12.7 mph 23.0 mph N/A   Overcast
3:15 PM 37.4 °F 29.8 °F 26.6 °F 65% 29.29 in 10.0 mi WSW 11.5 mph 19.6 mph N/A   Overcast
3:35 PM 35.6 °F 25.5 °F 26.6 °F 70% 29.30 in 10.0 mi WSW 17.3 mph 21.9 mph N/A   Overcast
3:55 PM 35.6 °F 26.2 °F 24.8 °F 65% 29.32 in 10.0 mi West 15.0 mph 27.6 mph N/A   Overcast
4:35 PM 33.8 °F 24.3 °F 21.2 °F 60% 29.34 in 10.0 mi West 13.8 mph 29.9 mph N/A   Overcast
4:55 PM 33.8 °F 23.5 °F 19.4 °F 56% 29.35 in 10.0 mi West 16.1 mph 27.6 mph N/A   Overcast
5:15 PM 32.0 °F 22.1 °F 19.4 °F 60% 29.36 in 10.0 mi West 13.8 mph 26.5 mph N/A   Overcast
5:35 PM 30.2 °F 19.8 °F 21.2 °F 69% 29.37 in 10.0 mi West 13.8 mph 19.6 mph N/A   Overcast
5:55 PM 30.2 °F 18.9 °F 17.6 °F 60% 29.39 in 10.0 mi West 16.1 mph 26.5 mph N/A   Overcast
6:15 PM 30.2 °F 18.1 °F 15.8 °F 55% 29.40 in 10.0 mi West 18.4 mph 28.8 mph N/A   Overcast
6:35 PM 28.4 °F 14.1 °F 14.0 °F 55% 29.41 in 10.0 mi West 24.2 mph 31.1 mph N/A   Mostly Cloudy
6:55 PM 26.6 °F 14.3 °F 12.2 °F 55% 29.43 in 10.0 mi West 16.1 mph 39.1 mph N/A   Partly Cloudy
7:15 PM 26.6 °F 13.4 °F 12.2 °F 55% 29.44 in 10.0 mi West 18.4 mph 25.3 mph N/A   Mostly Cloudy
7:55 PM 24.8 °F 13.4 °F 10.4 °F 54% 29.46 in 10.0 mi WNW 12.7 mph 23.0 mph N/A   Overcast
8:35 PM 23.0 °F 11.7 °F 12.2 °F 63% 29.48 in 10.0 mi West 11.5 mph 23.0 mph N/A   Mostly Cloudy
8:55 PM 23.0 °F 13.1 °F 12.2 °F 63% 29.48 in 10.0 mi WNW 9.2 mph 25.3 mph N/A   Overcast
9:15 PM 23.0 °F 11.1 °F 10.4 °F 59% 29.49 in 10.0 mi West 12.7 mph 20.7 mph N/A   Overcast
9:35 PM 21.2 °F 10.9 °F 12.2 °F 68% 29.50 in 10.0 mi WNW 9.2 mph 19.6 mph N/A   Overcast
10:15 PM 21.2 °F 8.3 °F 10.4 °F 63% 29.51 in 10.0 mi West 13.8 mph 23.0 mph N/A   Overcast
10:35 PM 21.2 °F 8.3 °F 12.2 °F 68% 29.52 in 10.0 mi West 13.8 mph 19.6 mph N/A   Overcast
11:15 PM 21.2 °F 6.4 °F 8.6 °F 58% 29.53 in 10.0 mi West 18.4 mph 31.1 mph N/A   Scattered Clouds
11:35 PM 21.2 °F 8.3 °F 8.6 °F 58% 29.53 in 10.0 mi WSW 13.8 mph 21.9 mph N/A   Partly Cloudy
11:55 PM 21.2 °F 6.8 °F 8.6 °F 58% 29.53 in 10.0 mi West 17.3 mph 23.0 mph N/A   Partly Cloudy